Showing default

GLOBALSTAR M097, 39072

Orbit data source: Space-Track

GLOBALSTAR M097, 39072 is a payload satellite owned by Globalstar (US) in LEO that was launched on Wed, 06 Feb 2013 UTC via a SOYUZ-2-1A launch vehicle from the Tyuratam Missile And Space Complex (TTMTR). Payload-class satellites include a variety of spacecraft equipped with specific instruments for various scientific and technological missions. These include communications satellites like Starlink; space stations such as the ISS; scientific satellites like the Hubble; Earth observation satellites from companies like Planet Labs, Umbra, and HawkEye 360; GPS; miniature CubeSats for education and research; and military/defense satellites.

Loading next visibility...
Identifier
39072, 2013-005A
Orbit
LEO
Country
Flag of UnknownUnknown / GLOB
Related business
Manufacturer
Thales Alenia
Mission
Operational Commercial Communications
Bus & Motor
PRISMA?, LS-400 AOCS?
Mass
715 kg wet, ~500 kg dry
Launch date (UTC)
2013-02-06 (13 years ago)
Launch vehicle
SOYUZ-2-1A
Launch site
Tyuratam Missile And Space Complex (TTMTR)
Object type
Payload
Rocket body
Debris
Shape & HBR
Trap Cyl + 2 Pan, 6.0 m
Radar Cross Section
20.931 m², Large (>1 m²)

Expand to show TLE details & history
Last TLE update: 21 hours ago

TLE from 21 hours ago
0 GLOBALSTAR M097
1 39072U 13005A   25348.74265376 -.00000113  00000-0 -50955-4 0  9997
2 39072  52.0051  84.7996 0000581 110.1645 249.9284 12.62267798593613
Epoch: 2025-12-14T17:49Z
TLE epoch observation values (Epoch: 2025-12-14T17:49:25.284Z)
Latitude
-0.00006°
Longitude
93.79301°
Altitude
1,414.435 km
Speed
7.154 km/s
True Right ascension
05h 39m 11s
True Declination
0° 00' 00"
Sunlit
Object was in full shadow at epoch
Visualization orbit readout
Latitude
Unknown
Longitude
Unknown
Altitude
Unknown
Speed
Unknown
Apparent Right ascension
Unknown
Apparent Declination
Unknown
Sunlit
N/A
Visualization observer readout
Local Sidereal Time
13:22:55
Azimuth
Unknown
Elevation
Unknown
Doppler factor
Unknown
Orbital elements
Apogee altitude
1,414.442 km
Perigee altitude
1,413.537 km
Semi-major axis
7,792.127 km
Eccentricity
0.00006
Inclination
52.0051°
RAAN
84.7996°
Arg. of periapsis
110.1645°
True anomaly
249.92215°
Mean anomaly
249.9284°
Eccentric anomaly
249.92527°
Mean motion
3.15543 °/min
Orbital period
114.09 mins
BSTAR
-0.000050955
Loading maneuver chart data...
Computing Atmospheric mass density...
Loading historical data...
Loading historical data...
Loading historical data...
Loading historical data...
Loading historical data...
Loading historical data...
Loading historical data...

Documentation

Showing up to 5 results
|